全部
Coonamble Airport (Coonamble, New South Wales) CNB 天气
|
Coonamble, New South Wales (CNB / YCNM)
晴天
多风 |
|
24 °C |
There is no TAF data available at CNB or any nearby airports.
CNB近期METAR历史数据
| Date | Time (AEST) | Flight Rules | Wind Dir. | Speed | Type | Height AGL (ft) | Visibility | Temp (°C) | Temp (°F) | Dew Point (°C) | Dew Point (°F) | Rel. Humid. | Pressure | Density Altitude | Remarks |
|---|---|---|---|---|---|---|---|---|---|---|---|---|---|---|---|
| 04-五月 | 14:00 | n/a | 340° | 11 kt | Missing | 24° | 75° | 15° | 59° | 57% | 1015 mb | 1,631 ft | |||
| 04-五月 | 13:00 | n/a | 10° | 9 kt | Missing | 24° | 75° | 14° | 57° | 54% | 1015 mb | 1,631 ft | |||
| 04-五月 | 12:00 | n/a | 30° | 8 kt | Missing | 22° | 71° | 16° | 60° | 69% | 1016 mb | 1,362 ft | |||
| 04-五月 | 11:00 | n/a | 10° | 14 kt | Missing | 21° | 69° | 14° | 57° | 64% | 1017 mb | 1,212 ft | |||
| 04-五月 | 10:00 | n/a | 30° | 10 kt | Missing | 20° | 68° | 15° | 59° | 73% | 1017 mb | 1,092 ft | |||
| 04-五月 | 09:00 | n/a | 50° | 10 kt | Missing | 19° | 66° | 16° | 60° | 83% | 1017 mb | 972 ft | |||
| 04-五月 | 08:00 | n/a | 30° | 9 kt | Missing | 17° | 62° | 15° | 59° | 88% | 1017 mb | 732 ft | |||
| 04-五月 | 07:00 | n/a | 320° | 2 kt | Missing | 17° | 62° | 15° | 59° | 88% | 1017 mb | 732 ft | |||
| 04-五月 | 06:00 | n/a | 40° | 10 kt | Missing | 19° | 66° | 13° | 55° | 68% | 1016 mb | 1,002 ft | |||
| 04-五月 | 05:00 | n/a | 40° | 10 kt | Missing | 19° | 66° | 13° | 55° | 68% | 1015 mb | 1,031 ft | |||
| 04-五月 | 04:00 | n/a | 50° | 7 kt | Missing | 19° | 66° | 14° | 57° | 73% | 1016 mb | 1,002 ft | |||
| 04-五月 | 03:00 | n/a | 80° | 4 kt | Missing | 19° | 66° | 17° | 62° | 88% | 1016 mb | 1,002 ft | |||
| 04-五月 | 02:00 | n/a | 120° | 8 kt | Missing | 19° | 66° | 17° | 62° | 88% | 1017 mb | 972 ft | |||
| 04-五月 | 01:00 | n/a | 180° | 10 kt | Missing | 19° | 66° | 17° | 62° | 88% | 1017 mb | 972 ft | |||
| 04-五月 | 00:00 | n/a | 190° | 7 kt | Missing | 20° | 68° | 16° | 60° | 78% | 1018 mb | 1,062 ft | |||
| 03-五月 | 23:00 | n/a | 250° | 10 kt | Missing | 21° | 69° | 14° | 57° | 64% | 1018 mb | 1,182 ft | |||
| 03-五月 | 22:00 | n/a | 50° | 6 kt | Missing | 21° | 69° | 10° | 50° | 49% | 1017 mb | 1,212 ft | |||
| 03-五月 | 21:00 | n/a | 60° | 6 kt | Missing | 21° | 69° | 10° | 50° | 49% | 1017 mb | 1,212 ft | |||
| 03-五月 | 20:00 | n/a | 50° | 6 kt | Missing | 20° | 68° | 10° | 50° | 53% | 1017 mb | 1,092 ft | |||
| 03-五月 | 19:00 | n/a | 30° | 6 kt | Missing | 22° | 71° | 10° | 50° | 46% | 1017 mb | 1,332 ft | |||
| 03-五月 | 18:00 | n/a | 30° | 6 kt | Missing | 24° | 75° | 11° | 51° | 44% | 1016 mb | 1,602 ft | |||
| 03-五月 | 17:00 | n/a | 30° | 9 kt | Missing | 25° | 77° | 11° | 51° | 41% | 1016 mb | 1,722 ft | |||
| 03-五月 | 16:00 | n/a | 10° | 10 kt | Missing | 27° | 80° | 11° | 51° | 37% | 1017 mb | 1,932 ft | |||
| 03-五月 | 15:00 | n/a | 10° | 10 kt | Missing | 27° | 80° | 12° | 53° | 39% | 1017 mb | 1,932 ft |
登录
| 您的浏览器不支持. 升级您的浏览器 |
